Skip Page Navigation
NASA JPL Caltech
NASA Logo - Jet Propulsion Laboratory + View the NASA Portal
+ Near-Earth Object (NEO) Program
Search JPL
JPL Home Earth Solar System Stars & Galaxies Technology
JPL Solar System Dynamics
BODIES ORBITS EPHEMERIDES TOOLS PHYSICAL DATA DISCOVERY FAQ SITE MAP
JPL Small-Body Database Browser
Search: [ help ]  
22369 Klinger (1993 SE3)
Classification: Main-belt Asteroid          SPK-ID: 2022369
Ephemeris | Orbit Diagram | Orbital Elements | Physical Parameters | Discovery Circumstances ]

[ show orbit diagram ]
Orbital Elements at Epoch 2456400.5 (2013-Apr-18.0) TDB
Reference: MPO250431 (heliocentric ecliptic J2000)
 Element Value Uncertainty (1-sigma)   Units 
e 0.1504743 n/a  
a 2.1351645 n/a AU
q 1.8138771 n/a AU
i 2.63586 n/a deg
node 214.33896 n/a deg
peri 161.12148 n/a deg
M 86.27903 n/a deg
tp 2456127.3833414
(2012-Jul-18.88334140)
n/a JED
period 1139.5816235
3.12
n/a
n/a
d
yr
n 0.31590541 n/a deg/d
Q 2.4564519 n/a AU
  Orbit Determination Parameters
   # obs. used (total)      400  
   first obs. used      1990-??-??  
   last obs. used      2013-01-05  
   # oppositions      12  
   planetary ephem.      DE403  
   condition code      0  
   fit RMS      0.54  
   data source      MPC:mpn  
   producer      MPCLINUX  

Additional Information
 T_jup = 3.702 

Ephemeris | Orbit Diagram | Orbital Elements | Physical Parameters | Discovery Circumstances ]

Physical Parameter Table
Parameter Symbol Value Units Sigma Reference Notes
absolute magnitude H 15.6 mag n/a PDS3 (MPO 9977)  

22369 Klinger           Discovered 1993 Sept. 18 by F. Borngen and L. D. Schmadel at Tautenburg.
German sculptor, painter and etcher Max Klinger (1857-1920) worked in Leipzig, partly in Rome. His greatest achievements are some sets of etchings. His best-known sculptures are those of Brahms and Beethoven in Hamburg and Leipzig, respectively. The name was suggested by the first discoverer.
NOTE: some special characters may not display properly (any characters within {} are an attempt to place the proper accent above a character)
Reference: 20010705/MPCPages.arcLast Updated: 2009-05-11

Alternate Designations
 1993 SE3 = 1990 UU13 = 1998 FD132 
Ephemeris | Orbit Diagram | Orbital Elements | Physical Parameters | Discovery Circumstances ]
ABOUT SSD CREDITS/AWARDS PRIVACY/COPYRIGHT GLOSSARY LINKS
FirstGov 2013-May-23 15:38 UT
(server date/time)  
NASA Home Page
Site Manager:   Donald K. Yeomans
Webmaster  Alan B. Chamberlin